User: anonymous
Location: Platte
(43.3870°N, 98.8440°W)
Time: 03:12:57
(UTC-05:00)
Language:

Landsat 7 - Orbit

View from above orbital plane
View from above orbital plane
View from above satellite
View from above satellite

Ground track
Ground track

The orbit data is extracted from the following two-line orbital elements,

1 25682U 99020A   14233.18673716  .00000194  00000-0  53039-4 0  5359
2 25682 098.2113 301.9216 0000591 093.5330 266.5941 14.57115993816451
Epoch (UTC): 21 August 2014 04:28:54
Eccentricity: 0.0000591
inclination: 98.2113°
perigee height: 702 km
apogee height: 703 km
right ascension of ascending node: 301.9216°
argument of perigee: 93.5330°
revolutions per day: 14.57115993
mean anomaly at epoch: 266.5941°
orbit number at epoch: 81645

The dashed part of the orbit path shows where the satellite is in the earth's shadow,  

DLR